Tracking 34717 objects as of 14-Jul-2026
HD Live streaming from Space Station
objects crossing your sky now

STARLINK-32453

Track STARLINK-32453 now!
10-day predictions
STARLINK-32453 is classified as:


NORAD ID: 61671
Int'l Code: 2024-193L
Perigee: 477.1 km
Apogee: 478.7 km
Inclination: 53.2 °
Period: 94.0 minutes
Semi major axis: 6848 km
RCS: Unknown
Launch date: October 26, 2024
Source: United States (US)
Launch site: AIR FORCE EASTERN TEST RANGE (AFETR)
Your satellite tracking list
Your tracking list is empty




NASA's NSSDC Master Catalog

Two Line Element Set (TLE):
1 61671U 24193L   26194.44926343  .00001285  00000-0  53162-4 0  9994
2 61671  53.1610 226.6790 0001165  98.4065 261.7069 15.31704386 95784
Source of the keplerian elements: AFSPC